When you browse on this site, cookies collect data to enhance your experience and personalize the content and advertising you see.
Visit our Privacy Policy to learn more. By continuing to use the site, you agree to this use of cookies and data.
  • In Denmark
  • List of Countries
  • For 7 days
  • Water Temperature
  • Satellite Maps
  • Weather Map
  • Weather Widgets
  • user-avatar
    Login

    Hourly Weather Linz

    Today, 18 June, Tuesday

    Time Temperature Precipitation Wind Pressure Humidity
    00:00 +17°C° 0 mm 2 mps 735 mmHg 87%
    01:00 +17°C° 0 mm 2 mps 735 mmHg 87%
    02:00 +17°C° 0 mm 2 mps 735 mmHg 87%
    03:00 +16°C° 0 mm 2 mps 735 mmHg 87%
    04:00 +16°C° 0 mm 1 mps 734 mmHg 88%
    05:00 +17°C° 0 mm 2 mps 734 mmHg 85%
    06:00 +18°C° 0 mm 2 mps 735 mmHg 82%
    07:00 +19°C° 0 mm 2 mps 735 mmHg 79%
    08:00 +21°C° 0 mm 2 mps 735 mmHg 76%
    09:00 +23°C° 0 mm 2 mps 734 mmHg 72%
    10:00 +25°C° 0 mm 3 mps 734 mmHg 69%
    11:00 +26°C° 0 mm 3 mps 734 mmHg 66%
    12:00 +27°C° 0 mm 3 mps 734 mmHg 63%
    13:00 +28°C° 0 mm 3 mps 733 mmHg 60%
    14:00 +28°C° 0 mm 3 mps 733 mmHg 60%
    15:00 +28°C° 0 mm 3 mps 733 mmHg 61%
    16:00 +28°C° 0 mm 3 mps 732 mmHg 62%
    17:00 +27°C° 0 mm 3 mps 732 mmHg 68%
    18:00 +25°C° 0 mm 2 mps 732 mmHg 74%
    19:00 +24°C° 0 mm 2 mps 732 mmHg 80%
    20:00 +21°C° 0 mm 2 mps 732 mmHg 83%
    21:00 +21°C° 0 mm 1 mps 733 mmHg 86%
    22:00 +19°C° 0 mm 1 mps 733 mmHg 89%
    23:00 +19°C° 0 mm 1 mps 733 mmHg 90%

    Tomorrow, 19 June, Wednesday

    Time Temperature Precipitation Wind Pressure Humidity
    00:00 +18°C° 0 mm 1 mps 732 mmHg 90%
    01:00 +18°C° 0 mm 1 mps 732 mmHg 90%
    02:00 +15°C° 0 mm 0 mps 732 mmHg 91%
    03:00 +15°C° 0 mm 0 mps 732 mmHg 91%
    04:00 +15°C° 0 mm 0 mps 732 mmHg 92%
    05:00 +16°C° 0 mm 0 mps 732 mmHg 89%
    06:00 +18°C° 0 mm 0 mps 732 mmHg 86%
    07:00 +19°C° 0 mm 0 mps 732 mmHg 83%
    08:00 +23°C° 0 mm 1 mps 732 mmHg 79%
    09:00 +24°C° 0 mm 1 mps 732 mmHg 74%
    10:00 +26°C° 0 mm 1 mps 732 mmHg 69%
    11:00 +27°C° 0 mm 1 mps 731 mmHg 64%
    12:00 +28°C° 0 mm 1 mps 731 mmHg 59%
    13:00 +29°C° 0 mm 1 mps 731 mmHg 54%
    14:00 +29°C° 0 mm 1 mps 731 mmHg 54%
    15:00 +29°C° 0 mm 1 mps 731 mmHg 54%
    16:00 +29°C° 0 mm 1 mps 731 mmHg 54%
    17:00 +27°C° 0.2 mm 2 mps 731 mmHg 62%
    18:00 +25°C° 0.2 mm 2 mps 731 mmHg 70%
    19:00 +22°C° 0.2 mm 3 mps 731 mmHg 78%
    20:00 +20°C° 0.2 mm 2 mps 731 mmHg 78%
    21:00 +20°C° 0.2 mm 1 mps 731 mmHg 79%
    22:00 +18°C° 0.2 mm 1 mps 731 mmHg 80%
    23:00 +16°C° 0 mm 0 mps 731 mmHg 80%

    Day after tomorrow, 20 June, Thursday

    Time Temperature Precipitation Wind Pressure Humidity
    00:00 +15°C° 0 mm 0 mps 731 mmHg 80%
    01:00 +15°C° 0 mm 0 mps 731 mmHg 80%
    02:00 +15°C° 0 mm 0 mps 731 mmHg 80%
    03:00 +14°C° 0 mm 0 mps 731 mmHg 80%
    04:00 +14°C° 0 mm 0 mps 731 mmHg 81%
    05:00 +15°C° 0 mm 0 mps 731 mmHg 79%
    06:00 +17°C° 0 mm 0 mps 731 mmHg 77%
    07:00 +18°C° 0 mm 0 mps 731 mmHg 76%
    08:00 +20°C° 0 mm 0 mps 731 mmHg 71%
    09:00 +22°C° 0 mm 0 mps 731 mmHg 67%
    10:00 +26°C° 0 mm 1 mps 731 mmHg 62%
    11:00 +27°C° 0 mm 1 mps 731 mmHg 59%
    12:00 +28°C° 0 mm 2 mps 730 mmHg 56%
    13:00 +29°C° 0 mm 2 mps 730 mmHg 53%
    14:00 +30°C° 0 mm 3 mps 729 mmHg 54%
    15:00 +30°C° 0 mm 3 mps 729 mmHg 55%
    16:00 +30°C° 0 mm 4 mps 729 mmHg 55%
    17:00 +28°C° 0.2 mm 4 mps 729 mmHg 62%
    18:00 +26°C° 0.2 mm 5 mps 730 mmHg 69%
    19:00 +23°C° 0.2 mm 5 mps 730 mmHg 75%
    20:00 +21°C° 1.8 mm 5 mps 730 mmHg 82%
    21:00 +19°C° 1.8 mm 4 mps 731 mmHg 89%
    22:00 +17°C° 1.8 mm 4 mps 731 mmHg 96%
    23:00 +17°C° 0.1 mm 3 mps 732 mmHg 95%

    21 June, Friday

    Time Temperature Precipitation Wind Pressure Humidity
    00:00 +17°C° 0.1 mm 2 mps 732 mmHg 95%
    01:00 +18°C° 0.1 mm 1 mps 732 mmHg 94%
    02:00 +16°C° 0 mm 2 mps 732 mmHg 94%
    03:00 +16°C° 0 mm 2 mps 732 mmHg 94%
    04:00 +15°C° 0 mm 2 mps 732 mmHg 94%
    05:00 +17°C° 0 mm 2 mps 733 mmHg 92%
    06:00 +18°C° 0 mm 2 mps 733 mmHg 91%
    07:00 +19°C° 0 mm 2 mps 733 mmHg 89%
    08:00 +20°C° 0.1 mm 3 mps 733 mmHg 85%
    09:00 +21°C° 0.1 mm 3 mps 733 mmHg 81%
    10:00 +22°C° 0.1 mm 3 mps 733 mmHg 78%
    11:00 +24°C° 0.2 mm 3 mps 733 mmHg 73%
    12:00 +25°C° 0.2 mm 3 mps 733 mmHg 68%
    13:00 +26°C° 0.2 mm 3 mps 733 mmHg 63%
    14:00 +25°C° 0.4 mm 3 mps 733 mmHg 70%
    15:00 +22°C° 0.4 mm 4 mps 733 mmHg 77%
    16:00 +21°C° 0.4 mm 4 mps 733 mmHg 84%
    17:00 +20°C° 0.2 mm 3 mps 733 mmHg 86%
    18:00 +20°C° 0.2 mm 2 mps 733 mmHg 88%
    19:00 +19°C° 0.2 mm 2 mps 734 mmHg 90%
    20:00 +19°C° 0 mm 1 mps 734 mmHg 91%
    21:00 +18°C° 0 mm 1 mps 734 mmHg 91%
    22:00 +16°C° 0 mm 1 mps 735 mmHg 91%
    23:00 +16°C° 0 mm 1 mps 735 mmHg 91%

    22 June, Saturday

    Time Temperature Precipitation Wind Pressure Humidity
    00:00 +15°C° 0 mm 0 mps 735 mmHg 92%
    01:00 +14°C° 0 mm 0 mps 735 mmHg 92%
    02:00 +14°C° 0 mm 0 mps 735 mmHg 92%
    03:00 +14°C° 0 mm 0 mps 734 mmHg 92%
    04:00 +14°C° 0 mm 0 mps 734 mmHg 93%
    05:00 +15°C° 0.3 mm 0 mps 735 mmHg 93%
    06:00 +15°C° 0.3 mm 0 mps 735 mmHg 93%
    07:00 +18°C° 0.3 mm 1 mps 735 mmHg 93%
    08:00 +18°C° 0.3 mm 1 mps 735 mmHg 93%
    09:00 +19°C° 0.3 mm 1 mps 735 mmHg 93%
    10:00 +19°C° 0.3 mm 1 mps 735 mmHg 93%
    11:00 +19°C° 0.1 mm 1 mps 735 mmHg 91%
    12:00 +20°C° 0.1 mm 1 mps 735 mmHg 90%
    13:00 +20°C° 0.1 mm 1 mps 735 mmHg 88%
    14:00 +20°C° 0.4 mm 1 mps 735 mmHg 90%
    15:00 +20°C° 0.4 mm 1 mps 734 mmHg 91%
    16:00 +20°C° 0.4 mm 1 mps 734 mmHg 92%
    17:00 +20°C° 0.1 mm 1 mps 734 mmHg 92%
    18:00 +20°C° 0.1 mm 1 mps 734 mmHg 92%
    19:00 +20°C° 0.1 mm 1 mps 734 mmHg 92%
    20:00 +19°C° 0 mm 1 mps 734 mmHg 93%
    21:00 +18°C° 0 mm 1 mps 734 mmHg 94%
    22:00 +16°C° 0 mm 1 mps 735 mmHg 94%
    23:00 +16°C° 0 mm 1 mps 735 mmHg 94%

    23 June, Sunday

    Time Temperature Precipitation Wind Pressure Humidity
    00:00 +16°C° 0 mm 1 mps 734 mmHg 94%
    01:00 +15°C° 0 mm 1 mps 734 mmHg 95%
    02:00 +14°C° 0 mm 0 mps 734 mmHg 95%
    03:00 +14°C° 0 mm 0 mps 734 mmHg 95%
    04:00 +14°C° 0 mm 0 mps 734 mmHg 95%
    05:00 +15°C° 0 mm 0 mps 734 mmHg 93%
    06:00 +16°C° 0 mm 0 mps 735 mmHg 91%
    07:00 +18°C° 0 mm 0 mps 735 mmHg 89%
    08:00 +20°C° 0 mm 0 mps 735 mmHg 83%
    09:00 +21°C° 0 mm 0 mps 735 mmHg 77%
    10:00 +25°C° 0 mm 1 mps 735 mmHg 71%
    11:00 +26°C° 0 mm 1 mps 735 mmHg 66%
    12:00 +27°C° 0 mm 1 mps 735 mmHg 62%
    13:00 +28°C° 0 mm 1 mps 734 mmHg 57%
    14:00 +28°C° 0 mm 1 mps 734 mmHg 56%
    15:00 +28°C° 0 mm 1 mps 734 mmHg 54%
    16:00 +29°C° 0 mm 1 mps 734 mmHg 53%
    17:00 +27°C° 0 mm 1 mps 734 mmHg 59%
    18:00 +26°C° 0 mm 1 mps 735 mmHg 66%
    19:00 +25°C° 0 mm 1 mps 735 mmHg 72%
    20:00 +23°C° 0 mm 1 mps 735 mmHg 75%
    21:00 +22°C° 0 mm 1 mps 735 mmHg 78%
    22:00 +20°C° 0 mm 1 mps 736 mmHg 81%
    23:00 +20°C° 0 mm 1 mps 736 mmHg 83%
    Show more